Weather History for Fort Smith, AR

Change the Weather History Date:

Thursday, November 7, 2013

  Actual Average Record
Temperature  
Mean Temperature 49 °F 55 °F  
Max Temperature 63 °F 67 °F 84 °F (2005)
Min Temperature 34 °F 44 °F 20 °F (1959)
Degree Days  
Heating Degree Days 16 10  
Month to date heating degree days 75 65  
Since 1 July heating degree days 210 219  
Moisture  
Dew Point 37 °F    
Average Humidity 70    
Maximum Humidity 96    
Minimum Humidity 43    
Precipitation  
Precipitation 0.00 in 0.15 in 2.12 in (1957)
Month to date precipitation 1.27 1.04  
Year to date precipitation 41.82 38.77  
Sea Level Pressure  
Sea Level Pressure 30.41 in    
Wind  
Wind Speed 3 mph (WSW)    
Max Wind Speed 12 mph    
Max Gust Speed 24 mph    
Visibility 9 miles    
Events      
T = Trace of Precipitation, MM = Missing Value Source: NWS Daily Summary

Daily Weather History Graph

Daily Weather History Graph

Search for Another Location

Airport:

Trip Planner

Search our weather history database for the weather conditions in past years. The results will help you decide how hot, cold, wet, or windy it might be!

Date:

Astronomy

Nov. 07, 2013 Rise Set
Actual Time 6:44 AM CST 5:16 PM CST
Civil Twilight 6:18 AM CST 5:43 PM CST
Nautical Twilight 5:48 AM CST 6:13 PM CST
Astronomical Twilight 5:18 AM CST 6:43 PM CST
Moon 10:52 AM CST (11/7) 9:30 PM CST (11/7)
Length of Visible Light 11h 25m
Length of Day
10h 31m
Waxing Crescent, 23% of the Moon is Illuminated
Nov 7
Waxing Crescent
Nov 9
First Quarter
Nov 17
Full
Nov 25
Last Quarter
Dec 2
New

Hourly Weather History & Observations

Time (CST) Temp. Windchill Dew Point Humidity Pressure Visibility Wind Dir Wind Speed Gust Speed Precip Events Conditions
12:53 AM 37.9 °F - 36.0 °F 93% 30.39 in 10.0 mi Calm Calm - N/A   Clear
1:53 AM 37.0 °F - 34.0 °F 89% 30.39 in 10.0 mi Calm Calm - N/A   Clear
2:13 AM 35.6 °F - 33.8 °F 93% 30.38 in 1.5 mi Calm Calm - N/A   Partly Cloudy
2:21 AM 35.6 °F - 33.8 °F 93% 30.39 in 1.0 mi Calm Calm - N/A   Mist
2:23 AM 35.6 °F - 33.8 °F 93% 30.39 in 2.0 mi Calm Calm - N/A   Clear
2:31 AM 35.6 °F - 33.8 °F 93% 30.39 in 10.0 mi Calm Calm - N/A   Clear
2:53 AM 35.1 °F - 33.1 °F 92% 30.40 in 10.0 mi Calm Calm - N/A   Clear
3:53 AM 35.1 °F 30.1 °F 33.1 °F 92% 30.41 in 10.0 mi WSW 5.8 mph - N/A   Clear
4:53 AM 36.0 °F - 34.0 °F 93% 30.43 in 10.0 mi Calm Calm - N/A   Clear
5:53 AM 35.1 °F - 33.1 °F 92% 30.44 in 10.0 mi Calm Calm - N/A   Clear
6:53 AM 34.0 °F 31.0 °F 32.0 °F 92% 30.46 in 10.0 mi WSW 3.5 mph - N/A   Clear
7:53 AM 39.0 °F 35.7 °F 36.0 °F 89% 30.48 in 10.0 mi WSW 4.6 mph - N/A   Clear
8:53 AM 44.1 °F 42.5 °F 37.9 °F 79% 30.48 in 10.0 mi SW 3.5 mph - N/A   Clear
9:53 AM 48.9 °F - 37.9 °F 66% 30.48 in 10.0 mi Calm Calm - N/A   Clear
10:53 AM 52.0 °F - 37.9 °F 59% 30.48 in 10.0 mi Calm Calm - N/A   Clear
11:53 AM 55.9 °F - 37.9 °F 51% 30.45 in 10.0 mi Variable 3.5 mph - N/A   Clear
12:53 PM 59.0 °F - 39.9 °F 49% 30.42 in 10.0 mi WSW 6.9 mph - N/A   Clear
1:53 PM 62.1 °F - 39.0 °F 43% 30.39 in 9.0 mi Variable 6.9 mph - N/A   Clear
2:53 PM 62.1 °F - 39.0 °F 43% 30.37 in 10.0 mi SW 5.8 mph - N/A   Clear
3:53 PM 62.1 °F - 39.9 °F 44% 30.37 in 10.0 mi WSW 10.4 mph - N/A   Clear
4:53 PM 57.9 °F - 37.9 °F 47% 30.37 in 10.0 mi WSW 9.2 mph - N/A   Clear
5:53 PM 52.0 °F - 39.0 °F 61% 30.38 in 5.0 mi West 6.9 mph - N/A   Clear
6:53 PM 50.0 °F - 39.0 °F 66% 30.39 in 7.0 mi West 5.8 mph - N/A   Clear
7:53 PM 50.0 °F - 41.0 °F 71% 30.39 in 9.0 mi WSW 4.6 mph - N/A   Clear
8:53 PM 50.0 °F - 39.0 °F 66% 30.38 in 10.0 mi SW 4.6 mph - N/A   Clear
9:53 PM 46.9 °F - 39.9 °F 77% 30.39 in 10.0 mi Calm Calm - N/A   Clear
10:53 PM 45.0 °F - 39.0 °F 80% 30.38 in 10.0 mi Calm Calm - N/A   Clear
11:53 PM 43.0 °F - 39.0 °F 86% 30.38 in 10.0 mi Calm Calm - N/A   Clear